[[{"header":{"parameterUnit":"m.s-1","parameterCategory":1,"la1":30.2991,"la2":30.254,"lo1":-89.0895,"lo2":-89.0444,"dy":0.0017,"dx":0.0017,"nx":28,"ny":28,"refTime":"2024-07-11T21:00:00:Z","depth":0,"parameterNumber":2,"parameterNumberName":"U-component_of_WINDS"},"data":[0,0,0,0,0,0,0,0,0,0,0,0,0,0,0,0,0,0,0,0,0,0,0,0,0,0,0,0,0,0,0,0,0,0,0,0,0,0,0,0,0,0,0,0,0,0,0,0,0,0,0,0,0,0,0,0,0,0,1.0712,1.0713,0,1.0862,1.0864,1.0866,1.0906,1.0905,1.0904,1.0903,1.106,1.1065,1.107,0,0,0,0,0,0,0,0,0,0,0,0,0,1.0461,1.0465,1.0712,1.0713,1.0715,1.0862,1.0864,1.0866,1.0906,1.0905,1.0904,1.0903,1.1058,1.1064,1.107,0,0,0,0,0,0,0,0,0,0,0,0,0,1.0586,1.0466,1.0711,1.0753,1.0758,1.0861,1.0864,1.0867,1.0906,1.0905,1.0904,1.0902,1.1056,1.1064,1.1071,1.1144,0,0,1.1094,1.1097,0,0,0,0,0,0,0,0,1.0579,1.0595,1.0745,1.075,1.0756,1.0864,1.0833,1.096,1.0907,1.085,1.0903,1.0902,1.0996,1.1008,1.104,1.1152,1.1158,1.1095,1.1099,1.1102,1.1105,0,0,0,0,0,0,0,1.057,1.0589,1.0771,1.0747,1.0754,1.0765,1.0781,1.0857,1.0929,1.0855,1.0858,1.0875,1.0999,1.1032,1.1044,1.1161,1.1094,1.1101,1.1106,1.1109,1.1339,1.1341,0,0,0,0,0,0,1.0554,1.0582,1.0766,1.0776,1.0662,1.077,1.0788,1.0831,1.0928,1.0942,1.0876,1.0877,1.102,1.1035,1.1049,1.1141,1.1102,1.1109,1.1114,1.1338,1.134,1.1342,0,0,0,0,0,0,1.0548,1.057,1.076,1.068,1.0705,1.0776,1.0823,1.0834,1.0868,1.0944,1.0957,1.0897,1.102,1.1039,1.112,1.1147,1.1113,1.112,1.1336,1.1338,1.1341,1.1324,0,0,0,0,0,0,1.0541,1.0568,1.0596,1.068,1.0709,1.0828,1.0825,1.0838,1.088,1.0882,1.0967,1.098,1.102,1.1108,1.1127,1.1156,1.1125,1.1334,1.1337,1.134,1.1323,1.1326,1.1329,0,0,0,0,0,1.0532,1.0586,1.0597,1.0619,1.0745,1.0829,1.0846,1.089,1.0882,1.0911,1.096,1.0977,1.1141,1.1116,1.1138,1.117,1.1332,1.1336,1.134,1.1322,1.1325,1.1329,0,0,0,0,0,0,1.0505,1.0598,1.0611,1.0694,1.0753,1.0836,1.0874,1.0893,1.0956,1.0955,1.1008,1.1027,1.1104,1.1146,1.1117,1.1245,1.1237,1.1245,1.1216,1.122,1.1223,1.1211,1.1132,0,0,0,0,0,1.0508,1.0568,1.0647,1.0712,1.0741,1.0802,1.0841,1.0869,1.0933,1.0959,1.1014,1.1076,1.1141,1.1183,1.1247,1.1329,1.1348,1.1361,1.1364,1.1366,1.1373,1.1418,1.1425,1.1354,1.1354,1.1354,0,0,1.0517,1.0575,1.061,1.0708,1.0758,1.0819,1.0823,1.0888,1.0934,1.0969,1.1048,1.1091,1.1163,1.1245,1.1284,1.1282,1.1396,1.1371,1.1372,1.1377,1.1423,1.1429,1.1435,1.1356,1.1356,1.1355,0,0,1.0563,1.0613,1.0673,1.0721,1.0796,1.0836,1.085,1.093,1.0959,1.1039,1.1066,1.1122,1.1234,1.1284,1.1324,1.1387,1.1405,1.1407,1.1422,1.1466,1.1471,1.1477,1.1499,1.1506,1.1413,1.1413,1.1413,0,1.0564,1.0656,1.0701,1.0764,1.0807,1.084,1.0901,1.0946,1.1038,1.1066,1.1062,1.1202,1.1253,1.1347,1.1362,1.1394,1.1411,1.1398,1.1467,1.1473,1.1478,1.15,1.1508,1.1413,1.1413,1.1413,1.1413,0,1.0653,1.0717,1.0757,1.0843,1.089,1.0951,1.1006,1.1048,1.1072,1.1113,1.1194,1.1257,1.1333,1.1358,1.1383,1.1455,1.1451,1.1456,1.1449,1.1484,1.1505,1.1514,1.1412,1.1413,1.1413,1.1413,0,0,1.0687,1.0796,1.081,1.0849,1.0933,1.0983,1.1046,1.112,1.1155,1.1217,1.1271,1.1364,1.1369,1.1415,1.1445,1.1484,1.1529,1.1485,1.1487,1.149,1.1611,1.1606,1.1615,1.1541,1.1543,1.1545,1.1605,0,1.0743,1.0856,1.0897,1.099,1.1049,1.1081,1.1136,1.1194,1.1233,1.1289,1.1333,1.1398,1.14,1.1427,1.1467,1.1515,1.1554,1.1512,1.1592,1.1595,1.1572,1.1626,1.1622,1.1675,1.1613,1.1615,1.1616,0,1.0823,1.0884,1.0983,1.1058,1.1085,1.1133,1.1204,1.1257,1.1323,1.1349,1.1399,1.1427,1.1494,1.1482,1.1575,1.1545,1.1581,1.161,1.1613,1.1622,1.1607,1.1636,1.1694,1.1701,1.163,1.1629,1.1628,0,1.0836,1.0944,1.1016,1.1049,1.1139,1.1172,1.1211,1.1276,1.1317,1.138,1.1407,1.1477,1.1515,1.1568,1.1614,1.1601,1.1703,1.1695,1.1726,1.1725,1.1746,1.1744,1.1809,1.177,1.1769,1.1769,1.1769,0,1.0894,1.0953,1.1023,1.1068,1.1134,1.1182,1.1247,1.1288,1.1345,1.1398,1.1431,1.148,1.1538,1.1595,1.1632,1.1703,1.172,1.1743,1.1752,1.174,1.1736,1.1763,1.1761,1.1771,1.1771,1.1771,1.177,0,1.092,1.097,1.1051,1.1129,1.115,1.1196,1.1263,1.1307,1.1348,1.1415,1.1433,1.1497,1.1565,1.1617,1.1706,1.173,1.1806,1.1816,1.1783,1.1788,1.1816,1.1812,1.19,1.1914,1.1865,1.1866,1.1866,0,1.0953,1.0999,1.1082,1.1119,1.1158,1.1218,1.1261,1.1309,1.1352,1.143,1.1465,1.1535,1.1594,1.1702,1.1757,1.1825,1.1836,1.1862,1.1846,1.1832,1.1835,1.1832,1.1836,1.1864,1.1864,1.1864,1.1865,0,1.1007,1.1029,1.1088,1.1156,1.1205,1.1261,1.1318,1.1347,1.1406,1.1452,1.1522,1.1567,1.1658,1.1727,1.18,1.1841,1.1863,1.1869,1.188,1.1868,1.1847,1.1858,1.1788,1.1867,1.1867,1.1866,1.1866,1.1866,1.1037,1.1079,1.1143,1.1208,1.1256,1.1307,1.1353,1.1398,1.1457,1.1534,1.1559,1.1631,1.1695,1.1795,1.1837,1.1894,1.1894,1.191,1.1914,1.1917,1.1915,1.1838,1.1908,1.1908,1.1908,1.1908,1.1908,0,1.1091,1.1134,1.1193,1.1271,1.1322,1.1337,1.14,1.1442,1.1504,1.1562,1.1619,1.1698,1.1766,1.1825,1.1895,1.1929,1.1941,1.1946,1.1944,1.1953,1.1912,1.1895,1.1935,1.1935,1.1935,1.1935,1.1935,1.1935,1.1125,1.1196,1.1226,1.1321,1.1364,1.1434,1.1468,1.1516,1.1562,1.165,1.1705,1.1743,1.1802,1.1876,1.1938,1.1954,1.1978,1.198,1.1998,1.1959,1.1956,1.1952,1.1937,1.1985,1.1985,1.2035,1.2035,1.2035]},{"header":{"parameterUnit":"m.s-1","parameterCategory":1,"la1":30.2991,"la2":30.254,"lo1":-89.0895,"lo2":-89.0444,"dy":0.0017,"dx":0.0017,"nx":28,"ny":28,"refTime":"2024-07-11T21:00:00:Z","depth":0,"parameterNumber":3,"parameterNumberName":"V-component_of_WINDS"},"data":[0,0,0,0,0,0,0,0,0,0,0,0,0,0,0,0,0,0,0,0,0,0,0,0,0,0,0,0,0,0,0,0,0,0,0,0,0,0,0,0,0,0,0,0,0,0,0,0,0,0,0,0,0,0,0,0,0,0,4.042,4.042,0,4.0391,4.0391,4.039,4.0389,4.0389,4.039,4.039,4.0354,4.0353,4.0351,0,0,0,0,0,0,0,0,0,0,0,0,0,4.047,4.0469,4.042,4.042,4.042,4.0391,4.0391,4.039,4.0389,4.0389,4.039,4.039,4.0354,4.0353,4.0351,0,0,0,0,0,0,0,0,0,0,0,0,0,4.0445,4.0469,4.042,4.0416,4.0415,4.0391,4.0391,4.039,4.0389,4.0389,4.039,4.039,4.0355,4.0353,4.0351,4.0328,0,0,4.0345,4.0344,0,0,0,0,0,0,0,0,4.0447,4.0443,4.0417,4.0416,4.0415,4.0394,4.0395,4.0369,4.0389,4.0398,4.039,4.0391,4.0366,4.0364,4.0357,4.0326,4.0325,4.0345,4.0344,4.0343,4.0342,0,0,0,0,0,0,0,4.0448,4.0444,4.0408,4.0416,4.0415,4.0413,4.041,4.039,4.0379,4.0398,4.0398,4.0394,4.0366,4.0359,4.0356,4.0324,4.0345,4.0343,4.0342,4.0341,4.0273,4.0273,0,0,0,0,0,0,4.0452,4.0446,4.0409,4.0408,4.0433,4.0412,4.0409,4.04,4.038,4.0377,4.0394,4.0394,4.0362,4.0358,4.0354,4.0326,4.0343,4.0341,4.034,4.0274,4.0273,4.0273,0,0,0,0,0,0,4.0453,4.0448,4.0411,4.0427,4.0422,4.0411,4.0401,4.0399,4.0392,4.0377,4.0375,4.0389,4.0362,4.0357,4.0335,4.0325,4.034,4.0338,4.0275,4.0274,4.0273,4.027,0,0,0,0,0,0,4.0454,4.0449,4.0441,4.0427,4.0421,4.0393,4.0401,4.0398,4.0389,4.039,4.0371,4.0369,4.0362,4.0338,4.0333,4.0323,4.0337,4.0276,4.0274,4.0273,4.0271,4.0269,4.0268,0,0,0,0,0,4.0456,4.044,4.0441,4.0436,4.0412,4.0393,4.0389,4.0384,4.0389,4.038,4.0371,4.0369,4.0327,4.0336,4.033,4.0319,4.0276,4.0275,4.0273,4.0272,4.027,4.0268,0,0,0,0,0,0,4.0451,4.0438,4.0439,4.0418,4.0407,4.0393,4.0382,4.0381,4.0367,4.0367,4.0359,4.0355,4.0333,4.0324,4.0333,4.0296,4.0302,4.0299,4.0303,4.03,4.0299,4.0301,4.0335,0,0,0,0,0,4.0449,4.0436,4.0424,4.0407,4.0402,4.0393,4.0384,4.0381,4.0368,4.0363,4.0352,4.0337,4.0321,4.031,4.0294,4.027,4.0265,4.0259,4.0258,4.0257,4.0254,4.024,4.0238,4.0268,4.0268,4.0268,0,0,4.0441,4.0432,4.0425,4.0406,4.0397,4.0383,4.0389,4.0373,4.0362,4.036,4.0339,4.033,4.0314,4.0291,4.028,4.0282,4.0245,4.0255,4.0254,4.0252,4.0239,4.0236,4.0233,4.0267,4.0267,4.0267,0,0,4.0421,4.0414,4.0399,4.039,4.0377,4.0371,4.0368,4.0354,4.0349,4.0328,4.0326,4.0312,4.0284,4.0273,4.0263,4.024,4.0238,4.0235,4.0225,4.0212,4.021,4.0208,4.0199,4.0196,4.0232,4.0232,4.0232,0,4.0413,4.0394,4.0391,4.0376,4.0367,4.0367,4.0351,4.0342,4.0324,4.0317,4.0321,4.0286,4.0275,4.0249,4.0244,4.0236,4.0231,4.0236,4.0211,4.0209,4.0206,4.0198,4.0195,4.0232,4.0232,4.0232,4.0232,0,4.0385,4.0371,4.0361,4.0345,4.0336,4.032,4.0313,4.0303,4.0301,4.0295,4.0273,4.026,4.0242,4.0236,4.0232,4.0209,4.0211,4.0213,4.0219,4.0203,4.0195,4.0192,4.0232,4.0232,4.0232,4.0232,0,0,4.036,4.0345,4.0341,4.0334,4.032,4.0309,4.0293,4.0277,4.0269,4.0256,4.0242,4.0219,4.0221,4.021,4.0205,4.0194,4.0176,4.0197,4.0196,4.0193,4.015,4.0148,4.0145,4.0175,4.0175,4.0174,4.0151,0,4.0338,4.0313,4.031,4.0286,4.0273,4.0273,4.0259,4.0248,4.0242,4.0228,4.022,4.0204,4.0208,4.0202,4.0191,4.0181,4.0167,4.0183,4.0161,4.016,4.0165,4.0141,4.0139,4.0118,4.0148,4.0147,4.0147,0,4.0309,4.0299,4.0274,4.0263,4.0257,4.0245,4.0231,4.0219,4.0206,4.0202,4.0191,4.0188,4.017,4.0178,4.0152,4.0163,4.0154,4.0147,4.0146,4.0144,4.0152,4.0137,4.0111,4.0107,4.0142,4.0142,4.0143,0,4.0294,4.0273,4.0256,4.025,4.0236,4.0228,4.0221,4.0209,4.02,4.0187,4.0181,4.0165,4.0156,4.0143,4.0135,4.0141,4.011,4.0117,4.0105,4.0105,4.0098,4.0098,4.007,4.0093,4.0093,4.0093,4.0093,0,4.027,4.0255,4.0249,4.0238,4.0221,4.0217,4.02,4.0193,4.0183,4.017,4.0168,4.0155,4.0146,4.0132,4.0126,4.0106,4.0101,4.0097,4.0095,4.0097,4.0097,4.009,4.0091,4.0092,4.0092,4.0092,4.0092,0,4.0249,4.0244,4.0226,4.0215,4.0212,4.02,4.019,4.0179,4.0173,4.0157,4.0152,4.0142,4.0126,4.0117,4.0095,4.0091,4.0068,4.0068,4.0073,4.0073,4.0062,4.0063,4.0027,4.0022,4.0048,4.0048,4.0048,0,4.0234,4.0222,4.0211,4.0204,4.0198,4.0185,4.0176,4.0172,4.0162,4.0148,4.0138,4.0122,4.0109,4.0081,4.0071,4.0054,4.0053,4.0042,4.005,4.0053,4.0053,4.0053,4.0052,4.004,4.004,4.0039,4.0039,0,4.0207,4.0206,4.0194,4.0183,4.0173,4.0163,4.0152,4.0146,4.0139,4.0129,4.0113,4.0103,4.0082,4.0065,4.0048,4.004,4.0038,4.0037,4.0033,4.0035,4.0038,4.0036,4.0069,4.0037,4.0038,4.0038,4.0038,4.0038,4.0188,4.0179,4.017,4.0157,4.015,4.014,4.013,4.0124,4.0111,4.0095,4.0093,4.0076,4.0063,4.004,4.0031,4.0017,4.0019,4.0014,4.0012,4.0011,4.001,4.0041,4.0013,4.0013,4.0013,4.0014,4.0014,0,4.0161,4.0156,4.0145,4.0132,4.0122,4.0124,4.0113,4.0103,4.0089,4.0079,4.0066,4.0048,4.0032,4.0021,4.0005,3.9995,3.9994,3.9991,3.9991,3.9989,4.0009,4.0014,3.9992,3.9992,3.9992,3.9992,3.9992,3.9992,4.0146,4.013,4.0128,4.0108,4.0102,4.0087,4.008,4.0071,4.0063,4.0044,4.0031,4.0025,4.0014,3.9997,3.9982,3.9979,3.9973,3.997,3.9967,3.9986,3.9988,3.999,3.9994,3.9969,3.9969,3.9948,3.9948,3.9947]}]]